SAS1TB EKCH-EKYT

Flight info

Callsign SAS1TB
Flight time N/A
Altitude 20000
Route GOLGA T506 LAPMA L621 AAL
Aircraft A319/M-SDE3FGHIRWY/LB1

Departure

Time 2026-04-22 18:39
Airport Copenhagen Kastrup Airport (EKCH)

Arrival

Time N/A
Airport Aalborg Airport (EKYT)
Time Latitude Longitude Altitude Speed Heading
2026-04-22 17:57 55.62670 12.64441 11 ft 0 kts 101°
2026-04-22 17:58 55.62670 12.64437 17 ft 0 kts 101°
2026-04-22 18:13 55.62671 12.64433 17 ft 3 kts 101°
2026-04-22 18:13 55.62676 12.64388 17 ft 4 kts 104°
2026-04-22 18:14 55.62681 12.64342 17 ft 4 kts 75°
2026-04-22 18:14 55.62668 12.64317 19 ft 4 kts 21°
2026-04-22 18:14 55.62643 12.64299 18 ft 4 kts 24°
2026-04-22 18:14 55.62619 12.64277 19 ft 4 kts 32°
2026-04-22 18:15 55.62596 12.64251 21 ft 4 kts 33°
2026-04-22 18:15 55.62574 12.64225 19 ft 4 kts 34°
2026-04-22 18:15 55.62557 12.64205 19 ft 4 kts 44°
2026-04-22 18:15 55.62546 12.64165 19 ft 4 kts 94°
2026-04-22 18:16 55.62552 12.64121 18 ft 4 kts 119°
2026-04-22 18:16 55.62563 12.64089 20 ft 4 kts 123°
2026-04-22 18:16 55.62573 12.64063 19 ft 1 kts 123°
2026-04-22 18:18 55.62571 12.64068 18 ft 2 kts 123°
2026-04-22 18:18 55.62558 12.64105 19 ft 6 kts 121°
2026-04-22 18:18 55.62532 12.64180 17 ft 9 kts 119°
2026-04-22 18:18 55.62493 12.64286 17 ft 12 kts 128°
2026-04-22 18:19 55.62437 12.64409 17 ft 14 kts 128°
2026-04-22 18:19 55.62376 12.64561 18 ft 16 kts 123°
2026-04-22 18:19 55.62318 12.64720 18 ft 10 kts 122°
2026-04-22 18:19 55.62276 12.64832 17 ft 11 kts 137°
2026-04-22 18:20 55.62214 12.64785 20 ft 11 kts 210°
2026-04-22 18:20 55.62144 12.64699 19 ft 13 kts 214°
2026-04-22 18:20 55.62055 12.64594 17 ft 17 kts 213°
2026-04-22 18:20 55.61938 12.64505 17 ft 20 kts 184°
2026-04-22 18:21 55.61791 12.64547 17 ft 23 kts 170°
2026-04-22 18:21 55.61663 12.64551 17 ft 16 kts 204°
2026-04-22 18:21 55.61562 12.64439 19 ft 19 kts 214°
2026-04-22 18:21 55.61445 12.64303 19 ft 22 kts 213°
2026-04-22 18:22 55.61309 12.64150 18 ft 25 kts 212°
2026-04-22 18:22 55.61157 12.63973 18 ft 28 kts 214°
2026-04-22 18:22 55.60986 12.63776 19 ft 31 kts 213°
2026-04-22 18:22 55.60841 12.63609 17 ft 6 kts 211°
2026-04-22 18:23 55.60794 12.63594 19 ft 8 kts 168°
2026-04-22 18:23 55.60745 12.63671 17 ft 9 kts 131°
2026-04-22 18:23 55.60736 12.63690 17 ft 0 kts 130°
2026-04-22 18:24 55.60722 12.63720 17 ft 5 kts 128°
2026-04-22 18:25 55.60704 12.63760 18 ft 7 kts 126°
2026-04-22 18:25 55.60676 12.63826 19 ft 2 kts 128°
2026-04-22 18:25 55.60671 12.63856 19 ft 3 kts 70°
2026-04-22 18:26 55.61243 12.64736 18 ft 93 kts 40°
2026-04-22 18:26 55.61445 12.65056 17 ft 0 kts 44°
2026-04-22 18:26 55.61465 12.65091 17 ft 7 kts 46°
2026-04-22 18:27 55.61518 12.65177 17 ft 13 kts 40°
2026-04-22 18:27 55.61571 12.65258 18 ft 17 kts 40°
2026-04-22 18:27 55.61676 12.65422 17 ft 22 kts 41°
2026-04-22 18:27 55.61785 12.65578 18 ft 14 kts 22°
2026-04-22 18:28 55.61863 12.65405 17 ft 18 kts 303°
2026-04-22 18:28 55.61880 12.65358 17 ft 0 kts 303°
2026-04-22 18:34 55.61888 12.65336 16 ft 4 kts 303°
2026-04-22 18:34 55.61910 12.65277 16 ft 7 kts 302°
2026-04-22 18:34 55.61942 12.65186 17 ft 10 kts 301°
2026-04-22 18:35 55.61988 12.65056 17 ft 14 kts 303°
2026-04-22 18:35 55.61987 12.64927 18 ft 13 kts 220°
2026-04-22 18:35 55.61899 12.64832 18 ft 17 kts 212°
2026-04-22 18:35 55.61795 12.64706 17 ft 20 kts 214°
2026-04-22 18:36 55.61675 12.64566 17 ft 22 kts 214°
2026-04-22 18:36 55.61534 12.64405 19 ft 26 kts 212°
2026-04-22 18:36 55.61376 12.64223 17 ft 29 kts 213°
2026-04-22 18:36 55.61199 12.64021 18 ft 32 kts 214°
2026-04-22 18:37 55.61034 12.63831 17 ft 25 kts 213°
2026-04-22 18:37 55.60887 12.63661 19 ft 17 kts 213°
2026-04-22 18:37 55.60772 12.63616 17 ft 19 kts 143°
2026-04-22 18:37 55.60682 12.63804 18 ft 20 kts 129°
2026-04-22 18:38 55.60698 12.63902 19 ft 8 kts 27°
2026-04-22 18:38 55.60787 12.64045 20 ft 39 kts 42°
2026-04-22 18:38 55.61180 12.64646 19 ft 108 kts 41°
2026-04-22 18:39 55.62649 12.66906 782 ft 143 kts 37°
2026-04-22 18:39 55.63338 12.68104 1429 ft 136 kts 38°
2026-04-22 18:39 55.63987 12.69305 1935 ft 138 kts 32°
2026-04-22 18:39 55.64769 12.70482 2202 ft 158 kts 30°
2026-04-22 18:40 55.65801 12.71236 2428 ft 169 kts 355°
2026-04-22 18:40 55.66980 12.70613 2682 ft 190 kts 333°
2026-04-22 18:40 55.68320 12.70076 3231 ft 206 kts 356°
2026-04-22 18:40 55.69764 12.70050 4009 ft 209 kts 354°
2026-04-22 18:41 55.71202 12.69907 4779 ft 211 kts 353°
2026-04-22 18:41 55.72676 12.69729 5553 ft 213 kts 353°
2026-04-22 18:41 55.74143 12.69333 6317 ft 215 kts 339°
2026-04-22 18:41 55.75385 12.67847 7043 ft 219 kts 318°
2026-04-22 18:42 55.76484 12.65953 7790 ft 221 kts 318°
2026-04-22 18:42 55.77591 12.64032 8524 ft 224 kts 318°
2026-04-22 18:42 55.78710 12.62083 9263 ft 227 kts 319°
2026-04-22 18:42 55.79845 12.60110 10023 ft 229 kts 319°
2026-04-22 18:43 55.80993 12.58116 10696 ft 232 kts 319°
2026-04-22 18:43 55.82145 12.56119 11322 ft 236 kts 319°
2026-04-22 18:43 55.83330 12.54061 11942 ft 240 kts 319°
2026-04-22 18:43 55.84537 12.51962 12590 ft 245 kts 319°
2026-04-22 18:44 55.85779 12.49801 13270 ft 259 kts 318°
2026-04-22 18:44 55.87126 12.47460 13636 ft 283 kts 318°
2026-04-22 18:44 55.88591 12.44907 13947 ft 307 kts 318°
2026-04-22 18:44 55.90163 12.42158 14337 ft 324 kts 317°
2026-04-22 18:45 55.91787 12.39310 14982 ft 331 kts 317°
2026-04-22 18:45 55.93438 12.36412 15694 ft 335 kts 317°
2026-04-22 18:45 55.95113 12.33470 16410 ft 340 kts 317°
2026-04-22 18:45 55.96788 12.30531 17109 ft 345 kts 317°
2026-04-22 18:46 55.98510 12.27504 17808 ft 350 kts 318°
2026-04-22 18:46 56.00258 12.24431 18511 ft 355 kts 318°
2026-04-22 18:46 56.02029 12.21317 19106 ft 360 kts 318°
2026-04-22 18:46 56.03824 12.18152 19705 ft 365 kts 318°
2026-04-22 18:47 56.05638 12.14939 20119 ft 369 kts 318°
2026-04-22 18:47 56.07463 12.11699 20223 ft 366 kts 318°
2026-04-22 18:47 56.09230 12.08547 20249 ft 354 kts 318°
2026-04-22 18:47 56.10939 12.05501 20247 ft 350 kts 318°
2026-04-22 18:48 56.12667 12.02431 20252 ft 349 kts 318°
2026-04-22 18:48 56.14395 11.99364 20250 ft 349 kts 318°
2026-04-22 18:48 56.16119 11.96302 20255 ft 349 kts 318°
2026-04-22 18:48 56.17844 11.93230 20252 ft 349 kts 318°
2026-04-22 18:49 56.19561 11.90153 20253 ft 349 kts 318°
2026-04-22 18:49 56.21279 11.87071 20250 ft 349 kts 318°
2026-04-22 18:49 56.22990 11.83969 20253 ft 350 kts 315°
2026-04-22 18:49 56.24335 11.80305 20253 ft 356 kts 296°
2026-04-22 18:50 56.25023 11.76063 20252 ft 360 kts 285°
2026-04-22 18:50 56.25586 11.71677 20250 ft 360 kts 285°
2026-04-22 18:50 56.26140 11.67286 20255 ft 360 kts 285°
2026-04-22 18:50 56.26687 11.62887 20256 ft 360 kts 285°
2026-04-22 18:51 56.27232 11.58486 20251 ft 361 kts 285°
2026-04-22 18:51 56.27779 11.54081 20251 ft 361 kts 285°
2026-04-22 18:51 56.28328 11.49676 20256 ft 361 kts 285°
2026-04-22 18:51 56.28879 11.45265 20256 ft 361 kts 285°
2026-04-22 18:52 56.29429 11.40858 20258 ft 361 kts 285°
2026-04-22 18:52 56.29970 11.36507 20259 ft 361 kts 285°
2026-04-22 18:52 56.30517 11.32094 20257 ft 361 kts 285°
2026-04-22 18:52 56.31061 11.27678 20257 ft 361 kts 285°
2026-04-22 18:53 56.31602 11.23257 20259 ft 361 kts 285°
2026-04-22 18:53 56.32139 11.18841 20262 ft 361 kts 285°
2026-04-22 18:53 56.32676 11.14423 20263 ft 360 kts 285°
2026-04-22 18:53 56.33197 11.10105 20263 ft 345 kts 285°
2026-04-22 18:54 56.33693 11.05969 20266 ft 330 kts 285°
2026-04-22 18:54 56.34167 11.02007 20270 ft 317 kts 285°
2026-04-22 18:54 56.34793 10.98320 20262 ft 298 kts 302°
2026-04-22 18:54 56.36013 10.95547 20269 ft 278 kts 324°
2026-04-22 18:55 56.37617 10.93754 20259 ft 267 kts 342°
2026-04-22 18:55 56.39382 10.92962 20038 ft 259 kts 359°
2026-04-22 18:55 56.41182 10.93173 19536 ft 264 kts 16°
2026-04-22 18:55 56.42880 10.94457 19117 ft 267 kts 33°
2026-04-22 18:56 56.44275 10.96661 18786 ft 268 kts 50°
2026-04-22 18:56 56.45219 10.99573 18468 ft 271 kts 68°
2026-04-22 18:56 56.45596 11.02909 18124 ft 274 kts 86°
2026-04-22 18:56 56.45392 11.06344 17781 ft 277 kts 98°
2026-04-22 18:57 56.44961 11.09743 17453 ft 278 kts 101°
2026-04-22 18:57 56.44317 11.13081 16818 ft 292 kts 117°
2026-04-22 18:57 56.42900 11.15877 16498 ft 321 kts 141°
2026-04-22 18:57 56.41031 11.18214 16265 ft 330 kts 144°